Regional Weather Roundup
Issued by NWS

Home | Current Version | Previous Version | Graphics & Text | Print | Product List | Glossary On
Versions: 1 2 3 4 5 6 7 8 9 10 11 12 13 14 15 16 17 18 19 20 21 22 23 24 25 26 27 28 29 30 31 32 33 34 35 36 37 38 39 40 41 42 43 44 45 46 47 48 49 50
000
ASUS45 KTFX 280304
RWRMT
MONTANA HOURLY WEATHER ROUNDUP
NATIONAL WEATHER SERVICE GREAT FALLS MT
904 PM MDT WED AUG 27 2014

NOTE: "FAIR" INDICATES FEW OR NO CLOUDS BELOW 12000 FEET WITH NO
SIGNIFICANT WEATHER AND/OR OBSTRUCTIONS TO VISIBILITY.

* THESE STATIONS ARE NOT UNDER NWS QUALITY CONTROL. THEY DO NOT
   REPORT WEATHER SUCH AS PRECIPITATION OR FOG.

MTZ001>007-043-280400-
WEST OF THE DIVIDE
CITY           SKY/WX    TMP DP  RH WIND       PRES   REMARKS
KALISPELL      FAIR      70  48  46 SW3       29.98R
MISSOULA       CLEAR     73  48  41 N5        30.04R
BUTTE          CLEAR     64  46  52 CALM      30.19R
MULLAN PASS    CLEAR     63  37  38 VRB5      30.20S
* LINCOLN      N/A       70  50  49 S2G8       N/A
* LOOKOUT PASS N/A       70  40  34 W1         N/A
* POLSON       N/A       68  46  45 SE2        N/A
* RONAN APT    CLEAR     75  50  42 N/A        N/A
* SEELEY LAKE  N/A       70  45  41 NE1G7      N/A
* THOMP F APT  CLEAR     61  42  50 N6G12      N/A
$$

MTZ008-052>055-280400-
SOUTHWEST MONTANA
CITY           SKY/WX    TMP DP  RH WIND       PRES   REMARKS
BOZEMAN        CLEAR     61  48  62 SE9       30.11R
DILLON         CLEAR     63  46  54 SE10      30.14R
W YELLOWSTONE  MOCLDY    61  45  56 SW12      30.26R
* THREE FORKS  CLEAR     72  72 100 N/A        N/A
* BOULDER HILL N/A       63  34  34 SW1        N/A
* MONIDA PASS  N/A       62  40  45 SW12       N/A
* RAYNOLDS PAS N/A       59  56  90 N/A        N/A
* WHITEHALL    N/A       72  46  40 NW3        N/A
* WISE RIVER   N/A       68  39  35 W7         N/A
$$

MTZ009>010-012-014-046-048-049-054-280400-
EAST SLOPES AND CENTRAL MONTANA
CITY           SKY/WX    TMP DP  RH WIND       PRES   REMARKS
CUT BANK       CLEAR     70  46  42 W12       30.01S
GREAT FALLS    CLEAR     68  46  45 SW5       30.01S
HELENA         CLEAR     73  45  37 SW8       30.07R
MALMSTROM AFB  CLEAR     66  50  56 SW8       30.02R
* CONRAD       CLEAR     73  50  44 W7         N/A
* EAST GLACIER N/A       65  46  50 W6         N/A
* MONARCH      N/A       59  37  44 SE2        N/A
* PENDROY      N/A       67  39  36 NW13       N/A
* ROGERS PASS  N/A       61  44  54 NW4        N/A
* SAINT MARY   N/A       70  43  38 S5G12      N/A
* SWEET GRASS  N/A       72  46  40 SW8        N/A
$$

MTZ011-013-016-021-035-040-045-047-050-051-280400-
NORTH CENTRAL MONTANA
CITY           SKY/WX    TMP DP  RH WIND       PRES   REMARKS
HAVRE          PTCLDY    70  54  57 N/A       29.91R
LEWISTOWN      CLEAR     64  48  56 S10       30.07R
* CHESTER      N/A       81  44  27 NW5        N/A
* DENTON       N/A       66  45  47 S11        N/A
* GEYSER       N/A       62  44  52 S10        N/A
* JUDITH GAP   N/A       64  43  47 NW4        N/A
* LOMA         N/A       78  51  39 SW3        N/A
$$

MTZ017>020-022>027-061-062-280400-
NORTHEAST MONTANA
CITY           SKY/WX    TMP DP  RH WIND       PRES   REMARKS
GLASGOW        CLEAR     73  52  48 NE3       29.92R
GLENDIVE       CLEAR     70  54  57 S7        29.98S
JORDAN         CLEAR     68  57  68 CALM      29.96R
SIDNEY         CLEAR     66  55  68 S5        29.96S
WOLF POINT     CLEAR     70  54  57 CALM      29.92R
* BEAVER HILL  N/A       70  57  64 SE15G20    N/A
* CIRCLE       N/A       73  56  55 N/A        N/A
* LINDSAY DVD  N/A       66  52  61 S2         N/A
* NAVAJO       N/A       70  51  51 W11        N/A
$$

MTZ028>042-056>058-280400-
SOUTHCENTRAL AND SOUTHEAST MONTANA
CITY           SKY/WX    TMP DP  RH WIND       PRES   REMARKS
BAKER          MOCLDY    66  61  84 SE13      30.05R
BILLINGS       PTCLDY    75  46  36 CALM      30.02R
LIVINGSTON     CLEAR     64  43  47 SW9       30.11R
MILES CITY     PTCLDY    73  50  44 SE6       29.97R
* LAUREL APT   PTCLDY    72  45  38 N/A        N/A
* ROUNDUP APT  CLEAR     73  48  41 N/A        N/A
* ALZADA       N/A       64  61  90 NE4        N/A
* HYSHAM       N/A       74  40  29 W1         N/A
* LAME DEER    N/A       69  51  53 S4         N/A
* REED POINT   N/A       68  41  38 N/A        N/A
* ROSCOE HILL  N/A       65  34  32 SW6        N/A
$$

REGIONAL REPORTS...DAKOTAS
CITY           SKY/WX    TMP DP  RH WIND       PRES   REMARKS
WILLISTON      CLEAR     72  54  53 S8        29.95R
DICKINSON      MOCLDY    64  61  90 S10       30.03R
BEACH          N/A       63  59  87 S10       30.03R
CROSBY         CLEAR     66  57  73 S12       29.94R
TIOGA          CLEAR     66  57  73 S8        30.00S
WATFORD CITY   CLEAR     70  54  57 SE9       29.96S
BISMARCK       PTCLDY    66  61  84 S8        30.05R
GRAND FORKS    CLEAR     63  57  81 SE7       30.06S
FARGO          MOCLDY    66  61  84 SE8       30.08R
BUFFALO SD     CLOUDY    63  61  93 SE7       30.01R
RAPID CITY     LGT RAIN  63  61  93 SW3       30.08S
$$

REGIONAL REPORTS...WYOMING/IDAHO/WASHINGTON
CITY           SKY/WX    TMP DP  RH WIND       PRES   REMARKS
GILLETTE       CLOUDY    61  57  87 W5        30.11R
SHERIDAN       CLOUDY    64  54  70 S3        30.07R
CODY           PTCLDY    64  52  65 SE5       30.15R
YELLOWSTONE LA PTCLDY    55  41  59 CALM      30.36R
SALMON         CLEAR     66  46  49 S6        30.08R
MULLAN PASS    CLEAR     63  37  38 VRB5      30.20S
SAND POINT     PTCLDY    68  55  63 CALM      29.94F
SPOKANE        FAIR      82  46  28 SW10      29.95S

$$



USA.gov is the U.S. government's official web portal to all federal, state and local government web resources and services.